This is the latest recevied weather packets stored in our database for station/object KC0UFP. If no packets are shown the sender has not sent any weather packets the latest 10 day(s).
| Time | Temp. | Humidity | Pressure | Rain* | Wind** | Luminosity | Snow |
|---|---|---|---|---|---|---|---|
| 1777255926 | 23.89° C | 61% | 1010.1 hPa | 0 mm | - | 0 W/m² | - |
| 1777255622 | 23.33° C | 61% | 1010.2 hPa | 0 mm | - | 0 W/m² | - |
| 1777255319 | 23.89° C | 60% | 1010.2 hPa | 0 mm | - | 0 W/m² | - |
| 1777255014 | 23.89° C | 59% | 1010.1 hPa | 0 mm | - | 0 W/m² | - |
| 1777254711 | 23.89° C | 59% | 1010.1 hPa | 0 mm | - | 0 W/m² | - |
| 1777254408 | 23.89° C | 59% | 1010 hPa | 0 mm | - | 0 W/m² | - |
| 1777254104 | 24.44° C | 58% | 1010.1 hPa | 0 mm | - | 0 W/m² | - |
| 1777253800 | 24.44° C | 58% | 1010.2 hPa | 0 mm | - | 0 W/m² | - |
| 1777253498 | 24.44° C | 57% | 1010 hPa | 0 mm | - | 0 W/m² | - |
| 1777253195 | 24.44° C | 57% | 1009.8 hPa | 0 mm | - | 0 W/m² | - |
| 1777252893 | 25° C | 56% | 1009.9 hPa | 0 mm | - | 0 W/m² | - |
| 1777252590 | 25° C | 55% | 1010 hPa | 0 mm | - | 0 W/m² | - |
| 1777252287 | 25° C | 54% | 1009.9 hPa | 0 mm | - | 0 W/m² | - |
| 1777251985 | 25.56° C | 54% | 1009.9 hPa | 0 mm | - | 0 W/m² | - |
| 1777251681 | 25.56° C | 54% | 1009.7 hPa | 0 mm | - | 0 W/m² | - |
| 1777251378 | 25.56° C | 53% | 1009.6 hPa | 0 mm | - | 0 W/m² | - |
| 1777251074 | 25.56° C | 53% | 1009.7 hPa | 0 mm | - | 1 W/m² | - |
| 1777250771 | 26.11° C | 52% | 1009.5 hPa | 0 mm | - | 2 W/m² | - |
| 1777250468 | 26.11° C | 52% | 1009.4 hPa | 0 mm | - | 4 W/m² | - |
| 1777250162 | 26.11° C | 51% | 1009.2 hPa | 0 mm | - | 6 W/m² | - |
| 1777249859 | 26.11° C | 52% | 1009.4 hPa | 0 mm | - | 10 W/m² | - |
| 1777249555 | 26.67° C | 51% | 1009.3 hPa | 0 mm | - | 14 W/m² | - |
| 1777249246 | 26.67° C | 50% | 1009.4 hPa | 0 mm | - | 21 W/m² | - |
| 1777248944 | 26.67° C | 50% | 1009.4 hPa | 0 mm | - | 27 W/m² | - |
| 1777248640 | 26.67° C | 49% | 1009.2 hPa | 0 mm | - | 37 W/m² | - |
* Rain latest hour (hover to see other rain measurements)
** Current wind speed in m/s (hover to see current wind gust speed)